Regional Weather Roundup
Issued by NWS

Home | Current Version | Previous Version | Graphics & Text | Print | Product List | Glossary On
Versions: 1 2 3 4 5 6 7 8 9 10 11 12 13 14 15 16 17 18 19 20 21 22 23 24 25 26 27 28 29 30 31 32 33 34 35 36 37 38 39 40 41 42 43 44 45 46 47 48 49 50
000
ASUS43 KDMX 262023
RWRIA

WEATHER ROUNDUP FOR IOWA
NATIONAL WEATHER SERVICE DES MOINES IA
300 PM CDT MON JUN 26 2017

NOTE: "FAIR" INDICATES FEW OR NO CLOUDS BELOW 12,000 FEET WITH NO
SIGNIFICANT WEATHER AND/OR OBSTRUCTIONS TO VISIBILITY.

* - THESE STATIONS ARE NOT NWS STATIONS...THUS NOT UNDER NWS
QUALITY CONTROL.  THEY ALSO DO NOT REPORT WEATHER SUCH
AS PRECIPITATION OR FOG.

IAZ001>003-012>014-020>022-031>034-043>046-262100-
   NORTHWEST IOWA

CITY           SKY/WX    TMP DP  RH WIND       PRES   REMARKS
CARROLL *      MOSUNNY   72  45  37 N6G13     30.15S
CHEROKEE *     MOSUNNY   70  44  38 NE8       30.16F
DENISON *      PTSUNNY   72  46  40 NE9       30.16F
LE MARS *      SUNNY     72  43  35 N10       30.18S
ORANGE CITY *  SUNNY     70  43  37 NE5       30.18S
SHELDON *      SUNNY     68  41  37 VRB6G16   30.16F
SIOUX CITY     MOSUNNY   74  47  38 MISG      30.16F
SPENCER        SUNNY     71  41  33 NE10G18   30.18F
STORM LAKE *     N/A     70  41  35 N10       30.17S
$$

IAZ055>058-069>071-079>083-090>094-262100-
   SOUTHWEST IOWA

CITY           SKY/WX    TMP DP  RH WIND       PRES   REMARKS
ATLANTIC *     PTSUNNY   73  50  43 W5        30.14F
AUDUBON *      PTSUNNY   72  52  49 N9        30.16S
CLARINDA *     PTSUNNY   72  59  64 SW8       30.16F
COUNCIL BLFS * MOSUNNY   73  55  53 NE8       30.13F
CRESTON *      MOSUNNY   72  54  53 VRB7      30.15F
HARLAN  *      PTSUNNY   72  52  49 E5G13     30.18F
LAMONI         CLOUDY    69  57  65 SW7       30.15F
RED OAK *      MOSUNNY   73  57  56 VRB5      30.13F
SHENANDOAH *   CLOUDY    70  59  68 SW3       30.15F
$$

IAZ047>049-059>061-072>074-084-262100-
   CENTRAL IOWA

CITY           SKY/WX    TMP DP  RH WIND       PRES   REMARKS
AMES           MOSUNNY   73  48  41 N10G20    30.14F
ANKENY *       MOSUNNY   72  52  49 VRB3      30.14F
BOONE *        MOSUNNY   72  46  40 N13       30.13F
CHARITON *     PTSUNNY   72  54  53 NW9       30.13F
DES MOINES     MOSUNNY   73  54  51 VRB3      30.13F
GRINNELL*      CLOUDY    69  50  51 NW10      30.14F
KNOXVILLE *    MOSUNNY   70  54  56 W9        30.12F
MARSHALLTOWN   MOSUNNY   72  46  39 N10       30.13F
NEWTON *       MOSUNNY   72  54  53 NW7       30.13F
PELLA *        MOSUNNY   72  53  51 SW6       30.14F
PERRY *        PTSUNNY   70  49  46 N3        30.14F
$$

IAZ004>006-015-016-023>025-035-036-262100-
   NORTH CENTRAL IOWA

CITY           SKY/WX    TMP DP  RH WIND       PRES   REMARKS
ALGONA *       SUNNY     68  39  34 N12G18    30.16F
CLARION *        N/A     70  41  35 N14       30.15F
ESTHERVILLE    SUNNY     67  42  40 N13G24    30.17F
FORT DODGE *   SUNNY     72  45  37 N8        30.16F
MASON CITY     SUNNY     69  40  34 VRB6G18   30.17F
FOREST CITY *    N/A     72  28  20 NW6       30.16F
WEBSTER CITY * SUNNY     72  43  35 N9G16     30.13F
IOWA FALLS *     N/A     72  43  35 N13G18    30.15F HAZE
$$

IAZ007>011-017>019-026>030-037>042-050>054-066-262100-
   NORTHEAST IOWA

CITY           SKY/WX    TMP DP  RH WIND       PRES   REMARKS
CEDAR RAPIDS   MOSUNNY   70  49  47 NW18      30.11F
CHARLES CITY * MOSUNNY   68  39  34 N13       30.15F
CLINTON *      PTSUNNY   72  47  40 NW20G28   30.09F
DECORAH *      PTSUNNY   66  43  42 NW10G18   30.13F
DUBUQUE        MOSUNNY   69  45  41 N17       30.11F
MONTICELLO *   MOSUNNY   70  45  40 NW15G22   30.11S
OELWEIN *      MOSUNNY   68  43  40 N14G21    30.13F
WATERLOO       SUNNY     71  38  29 NW13G24   30.12F
$$

IAZ064-065-067-068-078-262100-
   EAST CENTRAL IOWA

CITY           SKY/WX    TMP DP  RH WIND       PRES   REMARKS
DAVENPORT      MOSUNNY   71  50  47 W17       30.10F
IOWA CITY      MOSUNNY   71  50  47 NW12G18   30.12F
MT. PLEASANT * MOSUNNY   71  50  47 W8G18     30.13F
MUSCATINE *    LGT RAIN  63  54  72 W12       30.11F
QUAD CITIES    PTSUNNY   73  51  46 W22G29    30.09F
$$

IAZ062-063-075>077-085>089-095>099-262100-
   SOUTHEAST IOWA

CITY           SKY/WX    TMP DP  RH WIND       PRES   REMARKS
BURLINGTON     PTSUNNY   72  55  55 SW16      30.13F
FAIRFIELD *    PTSUNNY   72  52  49 W13       30.12F
FORT MADISON * MOSUNNY   70  52  52 SW9G18    30.13F
KEOKUK *       MOSUNNY   73  50  43 W10G20    30.13F
OSKALOOSA *      N/A     72  55  54 W10       30.13F
CENTERVILLE *    N/A     73  54  49 CALM      30.15F
OTTUMWA        PTSUNNY   71  55  56 W8        30.14F
WASHINGTON *   MOSUNNY   73  52  46 W14G23    30.12F
$$

ABBREVIATIONS USED IN REMARKS
   TC - TEMPERATURES IN CELSIUS
  WCI - WIND CHILL INDEX
   HX - HEAT INDEX
  VSB - VISIBILITY
$$



USA.gov is the U.S. government's official web portal to all federal, state and local government web resources and services.